7 * 24
多渠道服务支持
ONEWEB-0432是英国OneWeb低轨宽带星座中的一颗通信卫星,于2021年12月27日发射入轨。该卫星属于OneWeb星座组网卫星,依托低轨星座优势,可提供广覆盖、低延迟的全球互联网接入服务,能为偏远地区、海上和空中等场景补充网络连接,同时低轨巨型星座也具备潜在的军事应用价值,是全球低轨卫星互联网建设的重要组成部分。
英国
(GB)
| 数据来源 | 国际轨道数据 |
| 星历时间: | 2026-09-15T22:29:01+0800 9小时前 查看轨道信息 |
| 半长轴: | 7567.88km |
| 偏心率: | 0.000149 |
| 轨道倾角: | 87.917° |
| 近地点辐角 | 94.348° |
| 升交点赤经 | 317.482° |
| 平近点角 | 265.783° |
| 近地点: | 1188.615km |
| 远地点: | 1190.871km |
| 周期: | 109.200分钟 |
| 每日圈数: | 13.186861 |